EW7130 Weather Reports


time (UTC)temp
C
wind
direction
speed
KPH
gust
KPH
rain 1hr
cm
rain 24hr
cm
rain mn
cm
humidity
%
barometer
mb
20260906104043 21 154 0.0 0.0 0.00 1.04 1.04 99 1023.3
20260906103542 21 154 0.0 0.0 0.00 1.04 1.04 99 1023.5
20260906103037 21 154 0.0 0.0 0.00 1.04 1.04 99 1023.5
20260906102537 21 154 0.0 0.0 0.00 1.04 1.04 99 1023.5
20260906102032 21 154 0.0 0.0 0.00 1.04 1.04 99 1023.2
20260906101526 21 154 0.0 0.0 0.00 1.04 1.04 99 1023.5
20260906101021 21 154 0.0 0.0 0.00 1.04 1.04 99 1023.2
20260906100517 20 154 0.0 0.0 0.00 1.04 1.04 99 1023.4
20260906100012 21 154 0.0 0.0 0.00 1.04 1.04 99 1023.1
20260906095507 21 154 0.0 0.0 0.00 1.04 1.04 99 1023.0
20260906095002 21 156 0.0 0.0 0.00 1.04 1.04 99 1023.2
20260906094501 21 154 0.0 1.6 0.00 1.04 1.04 99 1023.2
20260906093957 21 154 1.6 3.2 0.00 1.04 1.04 99 1023.1
20260906093453 21 155 0.0 0.0 0.00 1.04 1.04 99 1023.0
20260906092953 21 155 0.0 0.0 0.00 1.04 1.04 99 1022.9
20260906092448 21 158 0.0 1.6 0.00 1.04 1.04 99 1022.9
20260906091943 21 154 0.0 0.0 0.00 1.04 1.04 99 1022.7
20260906091439 21 154 0.0 0.0 0.00 1.04 1.04 99 1022.6
20260906090935 21 154 0.0 0.0 0.00 1.04 1.04 99 1022.9
20260906090430 21 155 0.0 0.0 0.00 1.04 1.04 99 1022.8
20260906085924 21 154 0.0 0.0 0.00 1.04 1.04 99 1022.9
20260906085423 21 154 0.0 0.0 0.00 1.04 1.04 99 1022.6
20260906084922 21 154 0.0 0.0 0.00 1.04 1.04 99 1022.7
20260906084418 21 154 0.0 0.0 0.00 1.04 1.04 99 1022.8
20260906083917 21 154 0.0 0.0 0.00 1.04 1.04 99 1022.9
20260906083413 21 154 0.0 0.0 0.00 1.04 1.04 99 1022.8
20260906082912 21 155 0.0 0.0 0.00 1.04 1.04 99 1022.8
20260906082407 21 154 0.0 0.0 0.00 1.04 1.04 99 1023.0
20260906081903 21 154 0.0 0.0 0.00 1.04 1.04 99 1022.9
20260906081358 21 154 0.0 0.0 0.00 1.04 1.04 99 1023.1
20260906080854 21 155 0.0 0.0 0.00 1.04 1.04 99 1022.9
20260906080351 21 155 0.0 0.0 0.00 1.04 1.04 99 1022.9
20260906075849 21 155 0.0 0.0 0.00 1.04 1.04 99 1022.9
20260906075344 21 155 0.0 0.0 0.00 1.04 1.04 99 1022.8
20260906074840 21 155 0.0 0.0 0.00 1.04 1.04 99 1022.8
20260906074339 21 155 0.0 0.0 0.00 1.04 1.04 99 1022.7
20260906073838 21 155 0.0 0.0 0.00 1.04 1.04 99 1022.7
20260906073333 21 155 0.0 0.0 0.00 1.04 1.04 99 1022.9
20260906072830 21 155 0.0 0.0 0.00 1.04 1.04 99 1022.7
20260906072325 21 156 0.0 0.0 0.00 1.04 1.04 99 1022.8
20260906071821 22 154 1.6 8.0 0.00 1.04 1.04 99 1022.8
20260906071315 22 159 3.2 4.8 0.00 1.04 1.04 99 1022.8
20260906070813 22 160 3.2 4.8 0.00 1.04 1.04 99 1023.0
20260906070308 22 156 0.0 0.0 0.00 1.04 1.04 99 1022.9
20260906065807 22 156 0.0 0.0 0.00 1.04 1.04 99 1022.9
20260906065305 22 156 0.0 0.0 0.00 1.04 1.04 99 1023.0
20260906064758 22 156 0.0 0.0 0.00 1.04 1.04 99 1022.8
20260906064254 22 156 0.0 0.0 0.00 1.04 1.04 99 1022.8
20260906063749 22 154 1.6 1.6 0.00 1.04 1.04 99 1023.2
20260906063244 22 156 0.0 0.0 0.43 1.04 1.04 99 1023.3
20260906062739 22 153 3.2 9.7 1.85 1.02 1.02 99 1023.6
20260906062238 22 152 3.2 8.0 3.07 0.94 0.94 99 1023.9
20260906061734 22 154 3.2 4.8 3.66 0.64 0.64 99 1024.0
20260906061231 22 156 0.0 1.6 1.80 0.30 0.30 99 1024.1
20260906060726 22 155 1.6 4.8 0.18 0.03 0.03 99 1023.5
20260906060223 22 152 4.8 8.0 0.00 0.00 0.00 99 1023.7
20260906055719 22 165 8.0 14.5 0.00 0.00 0.00 99 1024.0
20260906055214 21 157 0.0 0.0 0.00 0.00 0.00 99 1023.6
20260906054709 21 157 0.0 0.0 0.00 0.00 0.00 99 1023.1
20260906054204 21 156 0.0 0.0 0.00 0.00 0.00 99 1023.1
20260906053701 21 155 0.0 0.0 0.00 0.00 0.00 99 1023.2
20260906053156 21 156 0.0 0.0 0.00 0.00 0.00 99 1023.1
20260906052651 21 156 0.0 0.0 0.00 0.00 0.00 99 1023.1
20260906052147 21 156 0.0 0.0 0.00 0.00 0.00 99 1023.4
20260906051643 21 156 0.0 0.0 0.00 0.00 0.00 99 1023.4
20260906051137 21 156 0.0 0.0 0.00 0.00 0.00 99 1023.4
20260906050633 21 156 0.0 0.0 0.00 0.00 0.00 99 1023.0
20260906050128 21 156 0.0 0.0 0.00 0.00 0.00 99 1023.1
20260906045626 21 156 0.0 0.0 0.00 0.00 0.00 99 1023.2
20260906045122 21 156 0.0 0.0 0.00 0.00 0.00 99 1023.1
20260906044618 21 156 0.0 0.0 0.00 0.00 0.00 99 1023.0
20260906044113 21 156 0.0 0.0 0.00 0.00 0.00 99 1023.2
20260906043609 21 156 0.0 1.6 0.00 0.00 0.00 99 1023.2
20260906043105 21 156 0.0 0.0 0.00 0.00 0.00 99 1023.0
20260906042604 21 156 0.0 0.0 0.00 0.00 0.00 99 1023.2
20260906042058 21 156 0.0 0.0 0.00 0.00 0.00 99 1023.1
20260906041554 21 156 0.0 0.0 0.00 0.00 0.00 99 1023.1
20260906041049 21 156 0.0 0.0 0.00 0.00 0.00 99 1023.1
20260906040544 22 157 0.0 0.0 0.00 0.00 0.00 99 1022.9
20260906040040 22 156 0.0 0.0 0.00 0.66 0.66 99 1023.1
20260906035534 22 156 0.0 0.0 0.00 0.66 0.66 99 1023.0
20260906035025 22 156 0.0 0.0 0.00 0.66 0.66 99 1023.2
20260906034525 22 156 0.0 0.0 0.00 0.66 0.66 99 1023.2
20260906034020 22 156 0.0 0.0 0.00 0.66 0.66 99 1023.3
20260906033514 22 156 0.0 0.0 0.00 0.66 0.66 99 1023.1
20260906033010 22 156 0.0 0.0 0.00 0.66 0.66 99 1022.9
20260906032507 22 156 0.0 0.0 0.00 0.66 0.66 99 1023.3
20260906032007 22 156 0.0 0.0 0.00 0.66 0.66 99 1023.0
20260906031503 22 156 0.0 0.0 0.00 0.66 0.66 99 1023.1
20260906030957 22 156 0.0 0.0 0.00 0.66 0.66 99 1023.0
20260906030451 22 156 0.0 0.0 0.00 0.66 0.66 99 1023.0
20260906025946 22 156 0.0 0.0 0.00 0.66 0.66 99 1023.0
20260906025445 22 156 0.0 0.0 0.00 0.66 0.66 99 1023.3
20260906024944 22 156 0.0 0.0 0.00 0.66 0.66 99 1023.2
20260906024444 22 156 0.0 0.0 0.00 0.66 0.66 99 1023.2
20260906023944 22 156 0.0 0.0 0.00 0.66 0.66 99 1023.2
20260906023441 22 156 3.2 3.2 0.00 0.66 0.66 99 1023.3
20260906022936 22 156 0.0 0.0 0.00 0.66 0.66 99 1023.3
20260906022432 22 156 0.0 0.0 0.00 0.66 0.66 99 1023.5
20260906021927 22 156 0.0 0.0 0.00 0.66 0.66 99 1023.5
20260906021426 22 156 0.0 0.0 0.00 0.66 0.66 99 1023.5
20260906020920 22 156 0.0 0.0 0.00 0.66 0.66 99 1023.4
20260906020415 22 156 0.0 0.0 0.00 0.66 0.66 99 1023.3
20260906015909 22 157 0.0 0.0 0.00 0.66 0.66 99 1023.2
20260906015409 23 156 0.0 0.0 0.00 0.66 0.66 99 1023.2
20260906014908 23 156 0.0 0.0 0.00 0.66 0.66 99 1022.9
20260906014403 23 156 0.0 0.0 0.00 0.66 0.66 99 1023.1
20260906013859 23 156 0.0 0.0 0.00 0.66 0.66 99 1023.2
20260906013355 23 156 0.0 0.0 0.00 0.66 0.66 99 1023.0
20260906012850 23 156 0.0 0.0 0.00 0.66 0.66 99 1023.0
20260906012345 23 156 0.0 0.0 0.00 0.66 0.66 99 1023.0
20260906011844 23 156 0.0 0.0 0.00 0.66 0.66 99 1022.9
20260906011339 23 156 0.0 0.0 0.00 0.66 0.66 99 1022.8
20260906010835 23 156 0.0 0.0 0.00 0.66 0.66 99 1022.8
20260906010331 23 156 0.0 0.0 0.00 0.66 0.66 99 1022.8
20260906005826 23 157 0.0 0.0 0.00 0.66 0.66 99 1022.9
20260906005326 23 157 0.0 0.0 0.00 0.66 0.66 99 1022.7
20260906004825 23 156 0.0 0.0 0.00 0.66 0.66 99 1022.7
20260906004324 24 157 0.0 0.0 0.00 0.66 0.66 99 1022.5
20260906003820 24 156 0.0 0.0 0.00 0.66 0.66 98 1022.6
20260906003315 24 156 0.0 0.0 0.00 0.66 0.66 98 1022.5
20260906002810 24 156 0.0 0.0 0.00 0.66 0.66 98 1022.3
20260906002309 24 156 0.0 0.0 0.00 0.66 0.66 98 1022.4
20260906001806 25 156 0.0 0.0 0.00 0.66 0.66 97 1022.3
20260906001301 25 156 0.0 0.0 0.00 0.66 0.66 97 1022.2
20260906000755 25 156 0.0 0.0 0.00 0.66 0.66 97 1022.4
20260906000250 25 156 0.0 0.0 0.00 0.66 0.66 96 1022.4
20260905235745 25 156 0.0 0.0 0.00 0.66 0.66 96 1022.3
20260905235244 25 156 0.0 0.0 0.00 0.66 0.66 95 1022.4
20260905234740 25 156 0.0 0.0 0.00 0.66 0.66 95 1022.5
20260905234235 25 156 1.6 1.6 0.00 0.66 0.66 96 1022.4
20260905233731 25 156 0.0 1.6 0.00 0.66 0.66 94 1022.4
20260905233230 26 156 0.0 1.6 0.00 0.66 0.66 94 1022.3
20260905232730 26 156 0.0 0.0 0.00 0.66 0.66 93 1022.6
20260905232226 26 156 0.0 0.0 0.00 0.66 0.66 93 1022.3
20260905231721 26 156 0.0 0.0 0.00 0.66 0.66 93 1022.4
20260905231217 26 156 0.0 1.6 0.00 0.66 0.66 93 1022.6
20260905230713 26 156 0.0 0.0 0.00 0.66 0.66 90 1022.4
20260905230210 26 156 0.0 3.2 0.00 0.66 0.66 90 1022.5
20260905225710 26 156 0.0 0.0 0.00 0.66 0.66 89 1022.5
20260905225206 26 156 0.0 0.0 0.00 0.66 0.66 88 1022.3
20260905224705 27 156 0.0 0.0 0.00 0.66 0.66 88 1022.3
20260905224200 27 156 0.0 0.0 0.00 0.66 0.66 87 1022.4
20260905223656 27 156 0.0 0.0 0.00 0.66 0.66 86 1022.6
20260905223153 27 156 0.0 0.0 0.00 0.66 0.66 86 1022.6
20260905222648 27 156 0.0 0.0 0.00 0.66 0.66 85 1022.6
20260905222148 27 156 0.0 0.0 0.00 0.66 0.66 85 1022.5
20260905221644 27 157 0.0 1.6 0.00 0.66 0.66 84 1022.7
20260905221141 28 157 0.0 1.6 0.00 0.66 0.66 84 1022.6
20260905220636 28 157 0.0 3.2 0.00 0.66 0.66 83 1022.4
20260905220132 28 156 3.2 4.8 0.00 0.66 0.66 84 1022.3
20260905215631 28 157 1.6 4.8 0.00 0.66 0.66 83 1022.3
20260905215127 29 155 4.8 8.0 0.00 0.66 0.66 81 1022.3
20260905214623 28 157 1.6 3.2 0.00 0.66 0.66 81 1022.3
20260905214118 28 153 9.7 16.1 0.00 0.66 0.66 85 1022.2
20260905213613 28 156 3.2 8.0 0.00 0.66 0.66 82 1022.2
20260905213108 28 157 6.4 8.0 0.00 0.66 0.66 84 1022.3
20260905212603 28 158 3.2 3.2 0.00 0.66 0.66 81 1022.4
20260905212103 28 155 6.4 8.0 0.00 0.66 0.66 84 1022.1
20260905211558 27 156 4.8 8.0 0.00 0.66 0.66 84 1021.9
20260905211053 28 156 6.4 8.0 0.00 0.66 0.66 82 1022.1
20260905210549 28 161 4.8 8.0 0.00 0.66 0.66 81 1021.8
20260905210044 28 152 4.8 8.0 0.00 0.66 0.66 82 1021.8
20260905205543 28 153 4.8 8.0 0.00 0.66 0.66 81 1022.2
20260905205042 28 151 8.0 9.7 0.00 0.66 0.66 81 1021.7
20260905204537 28 156 0.0 8.0 0.00 0.66 0.66 80 1021.8
20260905204033 28 155 4.8 8.0 0.00 0.66 0.66 80 1021.8
20260905203532 30 161 4.8 9.7 0.00 0.66 0.66 77 1021.8
20260905203028 28 154 9.7 11.3 0.00 0.66 0.66 81 1021.8
20260905202523 31 162 9.7 14.5 0.00 0.66 0.66 63 1021.9
20260905202019 32 155 8.0 11.3 0.00 0.66 0.66 75 1022.1
20260905201514 32 161 4.8 8.0 0.00 0.66 0.66 68 1021.9
20260905201014 30 154 8.0 11.3 0.00 0.66 0.66 68 1022.1
20260905200509 28 169 9.7 11.3 0.00 0.66 0.66 78 1022.1
20260905200009 29 156 4.8 8.0 0.00 0.66 0.66 80 1022.1
20260905195503 29 149 8.0 12.9 0.00 0.66 0.66 75 1022.1
20260905194958 29 158 6.4 9.7 0.00 0.66 0.66 83 1022.1
20260905194457 31 157 4.8 8.0 0.00 0.66 0.66 77 1022.4
20260905193952 31 165 6.4 8.0 0.00 0.66 0.66 69 1022.7
20260905193452 29 152 3.2 9.7 0.00 0.66 0.66 82 1022.5
20260905192947 28 155 8.0 9.7 0.00 0.66 0.66 86 1022.6
20260905192443 28 157 6.4 8.0 0.00 0.66 0.66 85 1022.6
20260905191938 28 155 8.0 9.7 0.00 0.66 0.66 87 1022.6
20260905191437 30 162 4.8 8.0 0.00 0.66 0.66 85 1022.9
20260905190937 29 157 8.0 9.7 0.00 0.66 0.66 84 1022.9
20260905190434 28 156 3.2 8.0 0.00 0.66 0.66 87 1023.2
20260905185934 29 157 0.0 8.0 0.00 0.66 0.66 79 1023.3
20260905185429 28 157 4.8 8.0 0.00 0.66 0.66 88 1023.5
20260905184927 30 161 6.4 8.0 0.00 0.66 0.66 85 1023.4
20260905184422 28 155 4.8 8.0 0.00 0.66 0.66 82 1023.5
20260905183921 28 158 6.4 8.0 0.00 0.66 0.66 88 1023.6
20260905183416 28 161 3.2 8.0 0.00 0.66 0.66 89 1023.9
20260905182911 28 156 4.8 8.0 0.00 0.66 0.66 85 1023.8
20260905182410 30 157 3.2 4.8 0.00 0.66 0.66 80 1023.7
20260905181906 28 156 1.6 4.8 0.00 0.66 0.66 85 1024.1
20260905181406 29 158 1.6 4.8 0.00 0.66 0.66 78 1023.9
20260905180905 29 159 6.4 11.3 0.00 0.66 0.66 80 1023.9
20260905180355 28 159 0.0 4.8 0.00 0.66 0.66 88 1024.3
20260905175850 27 154 3.2 4.8 0.00 0.66 0.66 89 1024.2
20260905175349 27 157 4.8 8.0 0.00 0.66 0.66 89 1024.4
20260905174850 28 155 3.2 3.2 0.00 0.66 0.66 88 1024.3
20260905174346 29 155 3.2 4.8 0.00 0.66 0.66 85 1024.3
20260905173841 27 153 3.2 3.2 0.00 0.66 0.66 84 1024.6
20260905173337 26 156 3.2 4.8 0.00 0.66 0.66 93 1024.4
20260905172832 27 155 4.8 8.0 0.00 0.66 0.66 94 1024.4
20260905172330 27 157 1.6 3.2 0.00 0.66 0.66 89 1024.3
20260905171826 26 158 1.6 4.8 0.00 0.66 0.66 89 1024.2
20260905171323 26 169 4.8 8.0 0.00 0.66 0.66 91 1024.0
20260905170819 26 162 4.8 8.0 0.00 0.66 0.66 93 1024.4
20260905170315 25 156 3.2 8.0 0.00 0.66 0.66 95 1024.2
20260905165813 25 155 1.6 4.8 0.00 0.66 0.66 98 1024.5
20260905165310 23 167 8.0 11.3 0.00 0.66 0.66 99 1024.5
20260905164809 23 167 6.4 9.7 0.00 0.66 0.66 99 1024.6
20260905164304 23 168 8.0 11.3 0.00 0.66 0.66 99 1024.7
20260905163759 23 165 8.0 11.3 0.00 0.66 0.66 99 1024.7
20260905163255 22 167 8.0 11.3 0.00 0.66 0.66 99 1025.1
20260905162751 23 157 1.6 3.2 0.00 0.66 0.66 99 1025.3
20260905162251 23 157 0.0 1.6 0.00 0.66 0.66 99 1025.1
20260905161745 22 156 0.0 0.0 0.00 0.66 0.66 99 1025.3
20260905161244 22 156 0.0 0.0 0.00 0.66 0.66 99 1025.4
20260905160743 22 155 0.0 1.6 0.00 0.66 0.66 99 1025.6
20260905160238 22 149 4.8 4.8 0.00 0.66 0.66 99 1025.7
20260905155738 22 160 3.2 4.8 0.00 0.66 0.66 99 1025.8
20260905155236 22 158 0.0 0.0 0.00 0.66 0.66 99 1026.1
20260905154731 22 156 0.0 0.0 0.00 0.66 0.66 99 1026.0
20260905154227 22 156 0.0 0.0 0.00 0.66 0.66 99 1026.1
20260905153722 22 156 0.0 0.0 0.18 0.66 0.66 99 1026.0
20260905153218 22 156 0.0 0.0 0.00 0.64 0.64 99 1025.9
20260905152713 22 155 0.0 3.2 0.00 0.64 0.64 99 1026.0
20260905152207 22 156 0.0 0.0 0.00 0.64 0.64 99 1026.2
20260905151707 22 156 1.6 3.2 0.13 0.64 0.64 99 1026.7
20260905151202 22 156 0.0 0.0 0.18 0.61 0.61 99 1026.8
20260905150657 22 156 0.0 0.0 0.30 0.58 0.58 99 1026.9
20260905150156 22 156 0.0 0.0 0.30 0.56 0.56 99 1027.0
20260905145654 22 156 0.0 0.0 0.30 0.53 0.53 99 1027.0
20260905145154 22 157 0.0 0.0 0.30 0.51 0.51 99 1027.5
20260905144649 22 155 0.0 1.6 0.13 0.48 0.48 99 1027.3
20260905144148 22 156 0.0 0.0 0.18 0.46 0.46 99 1027.0
20260905143643 22 156 0.0 3.2 0.18 0.46 0.46 99 1027.2
20260905143143 22 156 0.0 0.0 0.00 0.43 0.43 99 1027.2
20260905142641 22 156 0.0 4.8 0.00 0.43 0.43 99 1027.0
20260905142136 22 156 0.0 0.0 0.00 0.43 0.43 99 1026.6
20260905141636 23 155 1.6 4.8 0.13 0.43 0.43 99 1026.3
20260905141132 23 155 4.8 4.8 0.30 0.41 0.41 99 1026.2
20260905140627 23 156 1.6 12.9 1.07 0.41 0.41 99 1026.0
20260905140127 23 152 1.6 9.7 2.16 0.36 0.36 99 1025.8
20260905135622 25 153 1.6 3.2 0.30 0.05 0.05 96 1026.2
20260905135117 25 161 8.0 11.3 0.00 0.00 0.00 94 1025.7
20260905134612 25 160 3.2 3.2 0.00 0.00 0.00 96 1025.2
20260905134110 24 158 1.6 1.6 0.00 0.00 0.00 98 1024.7
20260905133607 24 156 0.0 1.6 0.00 0.00 0.00 98 1025.0
20260905133106 23 156 0.0 3.2 0.00 0.00 0.00 99 1025.2
20260905132606 23 156 0.0 1.6 0.00 0.00 0.00 99 1025.2
20260905132101 22 156 1.6 1.6 0.00 0.00 0.00 99 1025.2
20260905131556 22 156 0.0 0.0 0.00 0.00 0.00 99 1025.1
20260905131052 22 156 0.0 0.0 0.00 0.00 0.00 99 1025.3
20260905130550 22 155 0.0 0.0 0.00 0.00 0.00 99 1025.3
20260905130046 22 156 1.6 1.6 0.00 0.00 0.00 99 1025.5
20260905125545 22 156 0.0 1.6 0.00 0.00 0.00 99 1025.4
20260905125041 21 156 0.0 0.0 0.00 0.00 0.00 99 1025.4
20260905124537 21 157 0.0 0.0 0.00 0.00 0.00 99 1025.3
20260905124033 21 156 0.0 0.0 0.00 0.00 0.00 99 1025.3
20260905123528 21 156 0.0 0.0 0.00 0.00 0.00 99 1025.3
20260905123025 21 156 0.0 0.0 0.00 0.00 0.00 99 1025.4
20260905122519 21 156 0.0 0.0 0.00 0.00 0.00 99 1025.5
20260905122014 21 156 0.0 0.0 0.00 0.00 0.00 99 1025.4
20260905121509 21 156 0.0 0.0 0.00 0.00 0.00 99 1025.3
20260905121008 21 157 0.0 0.0 0.00 0.00 0.00 99 1025.1
20260905120502 21 156 0.0 0.0 0.00 0.00 0.00 99 1025.2
20260905115958 21 156 0.0 0.0 0.00 0.00 0.00 99 1025.1
20260905115457 20 155 0.0 0.0 0.00 0.00 0.00 99 1025.2
20260905114952 20 155 0.0 0.0 0.00 0.00 0.00 99 1025.1
20260905114451 20 155 0.0 0.0 0.00 0.00 0.00 99 1024.9
20260905113950 20 154 0.0 0.0 0.00 0.00 0.00 99 1024.9
20260905113446 20 154 0.0 0.0 0.00 0.00 0.00 99 1025.1
20260905112941 20 154 0.0 0.0 0.00 0.00 0.00 99 1024.8
20260905112436 20 154 0.0 0.0 0.00 0.00 0.00 99 1024.7
20260905111931 20 154 0.0 0.0 0.00 0.00 0.00 99 1024.9
20260905111431 20 154 0.0 0.0 0.00 0.00 0.00 99 1024.9
20260905110926 20 154 0.0 1.6 0.00 0.00 0.00 99 1024.6
20260905110425 20 154 0.0 0.0 0.00 0.00 0.00 99 1024.8
20260905105920 20 154 0.0 1.6 0.00 0.00 0.00 99 1024.5
20260905105420 20 154 0.0 0.0 0.00 0.00 0.00 99 1024.5
20260905104920 20 155 0.0 0.0 0.00 0.00 0.00 99 1024.4
20260905104416 20 154 0.0 0.0 0.00 0.00 0.00 99 1024.5